TimeAST,TemperatureF,Dew PointF,Humidity,Sea Level PressureIn,VisibilityMPH,Wind Direction,Wind SpeedMPH,Gust SpeedMPH,PrecipitationIn,Events,Conditions,WindDirDegrees,DateUTC
12:00 AM,80.6,71.6,74,29.95,6.2,East,10.4,-,N/A,,Partly Cloudy,90,2011-11-12 04:00:00
1:00 AM,80.6,71.6,74,29.95,6.2,East,6.9,-,N/A,,Partly Cloudy,90,2011-11-12 05:00:00
2:00 AM,80,71,67,29.94,22,ESE,8.1,,,,Scattered Clouds,110,2011-11-12 06:00:00
2:00 AM,80.6,71.6,74,29.92,6.2,East,6.9,-,N/A,,Partly Cloudy,80,2011-11-12 06:00:00
3:00 AM,80.6,71.6,74,29.92,6.2,East,8.1,-,N/A,,Partly Cloudy,90,2011-11-12 07:00:00
4:00 AM,80.6,71.6,74,29.92,6.2,East,9.2,-,N/A,,Partly Cloudy,90,2011-11-12 08:00:00
5:00 AM,80.6,71.6,74,29.92,6.2,East,8.1,-,N/A,,Partly Cloudy,90,2011-11-12 09:00:00
6:00 AM,80.6,71.6,74,29.95,6.2,East,8.1,-,N/A,,Partly Cloudy,90,2011-11-12 10:00:00
7:00 AM,80.6,71.6,74,29.95,6.2,East,9.2,-,N/A,,Partly Cloudy,90,2011-11-12 11:00:00
8:00 AM,83,72,62,29.98,25,East,10.4,,,,Scattered Clouds,80,2011-11-12 12:00:00
8:00 AM,82.4,71.6,70,29.98,6.2,East,10.4,-,N/A,,Partly Cloudy,80,2011-11-12 12:00:00
9:00 AM,84.2,71.6,66,29.98,6.2,East,12.7,-,N/A,,Scattered Clouds,80,2011-11-12 13:00:00
10:00 AM,84.2,71.6,66,29.98,6.2,ENE,12.7,-,N/A,,Scattered Clouds,70,2011-11-12 14:00:00
11:00 AM,87,73,55,29.99,25,East,11.5,,,,Mostly Cloudy,80,2011-11-12 15:00:00
11:00 AM,86.0,73.4,66,29.98,6.2,East,11.5,-,N/A,,Mostly Cloudy,80,2011-11-12 15:00:00
12:00 PM,86.0,71.6,62,29.98,6.2,East,12.7,-,N/A,,Scattered Clouds,90,2011-11-12 16:00:00
1:00 PM,86.0,73.4,66,29.95,6.2,East,11.5,-,N/A,,Mostly Cloudy,90,2011-11-12 17:00:00
2:00 PM,85,71,53,29.95,25,East,15.0,,,,Partly Cloudy,90,2011-11-12 18:00:00
2:00 PM,84.2,69.8,62,29.95,6.2,East,15.0,-,N/A,,Scattered Clouds,90,2011-11-12 18:00:00
3:00 PM,86.0,71.6,62,29.92,6.2,ENE,13.8,-,N/A,,Partly Cloudy,70,2011-11-12 19:00:00
4:00 PM,84.2,69.8,62,29.92,6.2,East,13.8,-,N/A,,Scattered Clouds,80,2011-11-12 20:00:00
5:00 PM,83,71,58,29.94,25,East,12.7,,,,Scattered Clouds,80,2011-11-12 21:00:00
5:00 PM,82.4,71.6,70,29.92,6.2,East,12.7,-,N/A,,Partly Cloudy,80,2011-11-12 21:00:00
6:00 PM,82.4,71.6,70,29.92,6.2,East,11.5,-,N/A,,Scattered Clouds,90,2011-11-12 22:00:00
7:00 PM,80.6,69.8,70,29.95,6.2,East,11.5,-,N/A,,Scattered Clouds,90,2011-11-12 23:00:00
8:00 PM,81,71,64,29.98,25,East,8.1,,,,Partly Cloudy,90,2011-11-13 00:00:00
8:00 PM,80.6,71.6,74,29.98,6.2,East,8.1,-,N/A,,Scattered Clouds,90,2011-11-13 00:00:00
9:00 PM,80.6,69.8,70,29.98,6.2,East,9.2,-,N/A,,Scattered Clouds,90,2011-11-13 01:00:00
10:00 PM,80.6,69.8,70,29.98,6.2,East,10.4,-,N/A,,Partly Cloudy,100,2011-11-13 02:00:00
11:00 PM,81,71,65,29.99,25,East,9.2,,,,Scattered Clouds,90,2011-11-13 03:00:00
11:00 PM,80.6,71.6,74,29.98,6.2,East,9.2,-,N/A,,Partly Cloudy,90,2011-11-13 03:00:00